{"data":{"norad_id":49773,"epoch":"2026-09-19T18:51:29.331360Z","epoch_age_seconds":69544,"freshness":"FRESH","line1":"1 49773U 21115BB  26262.78575615  .00015717  00000+0  28910-3 0  9995","line2":"2 49773  53.1974 323.7465 0003604  60.4428 299.6941 15.49403675270416","mean_motion":15.49403675,"eccentricity":0.0003604,"inclination_deg":53.1974,"raan_deg":323.7465,"arg_perigee_deg":60.4428,"mean_anomaly_deg":299.6941,"bstar":0.0002891,"rev_number":27041,"period_min":92.938981831187,"perigee_km":416.0199039853,"apogee_km":420.91889787909,"semimajor_km":6796.6064009322,"source":"CELESTRAK","updated_at":"2026-09-20T09:00:15.456105Z"}}